Content
SEND FEEDBACK

Daily
Averages
Monthly
Summary
United States of America

NAPERVILLE, ILLINOIS


Home > North America > United States > Illinois
Elevation: 687 feet     Latitude: 41 49N     Longitude: 088 04W

WEATHER
 
SELECT A DAY
Number of Records: 198,949;   Date Range: 1/1/95 - 9/29/14
 
SHARE

PRINT THIS DATA

[ ← Previous Day ]
WEATHER ALMANAC - AUGUST 14, 2013
[ Next Day → ]
[ °C ]   °F
Weather ElementAverageHighLow
Temperature63.4 °F70 °F (12:51 pm)57 °F (1:51 am)
Dewpoint49.8 °F52 °F (1:51 am)46 °F (11:51 am)
Humidity63.3 %83 % (1:51 am)42 % (12:51 pm)
Barometer30.17 in30.21 in (9:51 am)30.15 in (1:51 am)
Wind Speed7.2 mph10.4 mph (8:51 pm)
Weather ElementAverage
Visibility10 mi
Wind DirectionSSE (171.3 °)

Weather ElementTotal
Precipitation---
Heating Degree Days1.5 (Base 65)
Growing Degree Days13.5 (Base 50)
Averaged from 23 records on August 14, 2013
WEATHER CONDITIONS BREAKOUT
WIND DIRECTION BREAKOUT
WEATHER BY HOUR - AUGUST 14, 2013
[ °C ]   °F
Local TimeTemperatureDewpointHumidityBarometerVisibilityWind DirectionWind SpeedGust SpeedPrecipitationEventsConditions
1:51 AM57.0 °F52.0 °F83 %30.15 in10.0 miNNW (340°)3.5 mphPartly Cloudy
2:51 AM57.0 °F52.0 °F83 %30.15 in10.0 miNNW (330°)4.6 mphPartly Cloudy
3:51 AM57.0 °F51.1 °F81 %30.16 in10.0 miNNW (340°)4.6 mphPartly Cloudy
4:51 AM57.9 °F51.1 °F78 %30.17 in10.0 miNNW (340°)5.8 mphPartly Cloudy
5:51 AM57.0 °F51.1 °F81 %30.18 in10.0 miNorth (360°)6.9 mphScattered Clouds
6:51 AM57.9 °F51.1 °F78 %30.19 in10.0 miNorth (350°)5.8 mphScattered Clouds
7:51 AM61.0 °F51.1 °F70 %30.20 in10.0 miNorth (360°)8.1 mphPartly Cloudy
8:51 AM64.9 °F50.0 °F58 %30.19 in10.0 miNNE (20°)8.1 mphScattered Clouds
9:51 AM66.9 °F48.0 °F51 %30.21 in10.0 miNNE (20°)8.1 mphMostly Cloudy
10:51 AM66.9 °F46.9 °F49 %30.21 in10.0 miNNE (20°)9.2 mphMostly Cloudy
11:51 AM66.9 °F46.0 °F47 %30.21 in10.0 miNNE (30°)6.9 mphMostly Cloudy
12:51 PM70.0 °F46.0 °F42 %30.19 in10.0 miNorth (360°)9.2 mphMostly Cloudy
1:51 PM69.1 °F48.0 °F47 %30.19 in10.0 miNorth (10°)8.1 mphMostly Cloudy
2:51 PM69.1 °F46.9 °F45 %30.17 in10.0 miNE (50°)8.1 mphMostly Cloudy
3:51 PM70.0 °F48.9 °F47 %30.17 in10.0 miNE (40°)5.8 mphMostly Cloudy
4:51 PM70.0 °F48.9 °F47 %30.16 in10.0 miEast (90°)8.1 mphScattered Clouds
5:51 PM69.1 °F48.9 °F49 %30.15 in10.0 miEast (80°)9.2 mphScattered Clouds
6:51 PM68.0 °F48.9 °F50 %30.15 in10.0 miEast (90°)9.2 mphScattered Clouds
7:51 PM64.0 °F51.1 °F63 %30.15 in10.0 miESE (120°)9.2 mphScattered Clouds
8:51 PM62.1 °F52.0 °F70 %30.16 in10.0 miESE (120°)10.4 mphScattered Clouds
9:51 PM60.1 °F52.0 °F75 %30.16 in10.0 miSE (140°)8.1 mphScattered Clouds
10:51 PM57.9 °F52.0 °F81 %30.17 in10.0 miSouth (170°)4.6 mphPartly Cloudy
11:51 PM57.9 °F52.0 °F81 %30.17 in10.0 miSSE (160°)4.6 mphClear
Hourly data recorded from KORD, located miles away from Naperville, Illinois







STORIES FROM OUR PARTNERS